Year,Month,Day,Hour,Minute,Value (Times are PST for temperature in C)
2010,06,23,00,00,15.00
2010,06,23,00,01,15.00
2010,06,23,00,02,15.00
2010,06,23,00,03,15.00
2010,06,23,00,04,15.00
2010,06,23,00,05,15.00
2010,06,23,00,06,15.00
2010,06,23,00,07,15.00
2010,06,23,00,08,15.00
2010,06,23,00,09,15.00
2010,06,23,00,10,15.00
2010,06,23,00,11,14.90
2010,06,23,00,12,14.90
2010,06,23,00,13,14.90
2010,06,23,00,14,14.80
2010,06,23,00,15,14.80
2010,06,23,00,16,14.80
2010,06,23,00,17,14.80
2010,06,23,00,18,14.80
2010,06,23,00,19,14.80
2010,06,23,00,20,14.80
2010,06,23,00,21,14.80
2010,06,23,00,22,14.80
2010,06,23,00,23,14.80
2010,06,23,00,24,14.80
2010,06,23,00,25,14.80
2010,06,23,00,26,14.70
2010,06,23,00,27,14.70
2010,06,23,00,28,14.70
2010,06,23,00,29,14.70
2010,06,23,00,30,14.70
2010,06,23,00,31,14.70
2010,06,23,00,32,14.70
2010,06,23,00,33,14.70
2010,06,23,00,34,14.70
2010,06,23,00,35,14.70
2010,06,23,00,36,14.70
2010,06,23,00,37,14.70
2010,06,23,00,38,14.70
2010,06,23,00,39,14.70
2010,06,23,00,40,14.70
2010,06,23,00,41,14.60
2010,06,23,00,42,14.60
2010,06,23,00,43,14.60
2010,06,23,00,44,14.60
2010,06,23,00,45,14.60
2010,06,23,00,46,14.60
2010,06,23,00,47,14.60
2010,06,23,00,48,14.60
2010,06,23,00,49,14.50
2010,06,23,00,50,14.50
2010,06,23,00,51,14.50
2010,06,23,00,52,14.50
2010,06,23,00,53,14.50
2010,06,23,00,54,14.50
2010,06,23,00,55,14.40
2010,06,23,00,56,14.40
2010,06,23,00,57,14.40
2010,06,23,00,58,14.40
2010,06,23,00,59,14.40
2010,06,23,01,00,14.40
2010,06,23,01,01,14.40
2010,06,23,01,02,14.40
2010,06,23,01,03,14.40
2010,06,23,01,04,14.40
2010,06,23,01,05,14.40
2010,06,23,01,06,14.40
2010,06,23,01,07,14.40
2010,06,23,01,08,14.40
2010,06,23,01,09,14.40
2010,06,23,01,10,14.50
2010,06,23,01,11,14.50
2010,06,23,01,12,14.50
2010,06,23,01,13,14.50
2010,06,23,01,14,14.50
2010,06,23,01,15,14.50
2010,06,23,01,16,14.50
2010,06,23,01,17,14.60
2010,06,23,01,18,14.60
2010,06,23,01,19,14.60
2010,06,23,01,20,14.60
2010,06,23,01,21,14.60
2010,06,23,01,22,14.60
2010,06,23,01,23,14.60
2010,06,23,01,24,14.60
2010,06,23,01,25,14.50
2010,06,23,01,26,14.60
2010,06,23,01,27,14.50
2010,06,23,01,28,14.50
2010,06,23,01,29,14.50
2010,06,23,01,30,14.50
2010,06,23,01,31,14.50
2010,06,23,01,32,14.50
2010,06,23,01,33,14.50
2010,06,23,01,34,14.50
2010,06,23,01,35,14.50
2010,06,23,01,36,14.50
2010,06,23,01,37,14.50
2010,06,23,01,38,14.50
2010,06,23,01,39,14.50
2010,06,23,01,40,14.50
2010,06,23,01,41,14.50
2010,06,23,01,42,14.50
2010,06,23,01,43,14.50
2010,06,23,01,44,14.50
2010,06,23,01,45,14.50
2010,06,23,01,46,14.50
2010,06,23,01,47,14.50
2010,06,23,01,48,14.50
2010,06,23,01,49,14.50
2010,06,23,01,50,14.50
2010,06,23,01,51,14.50
2010,06,23,01,52,14.50
2010,06,23,01,53,14.50
2010,06,23,01,54,14.50
2010,06,23,01,55,14.50
2010,06,23,01,56,14.50
2010,06,23,01,57,14.50
2010,06,23,01,58,14.50
2010,06,23,01,59,14.50
2010,06,23,02,00,14.50
2010,06,23,02,01,14.50
2010,06,23,02,02,14.50
2010,06,23,02,03,14.50
2010,06,23,02,04,14.50
2010,06,23,02,05,14.50
2010,06,23,02,06,14.50
2010,06,23,02,07,14.50
2010,06,23,02,08,14.50
2010,06,23,02,09,14.50
2010,06,23,02,10,14.50
2010,06,23,02,11,14.50
2010,06,23,02,12,14.50
2010,06,23,02,13,14.50
2010,06,23,02,14,14.50
2010,06,23,02,15,14.50
2010,06,23,02,16,14.50
2010,06,23,02,17,14.50
2010,06,23,02,18,14.50
2010,06,23,02,19,14.50
2010,06,23,02,20,14.50
2010,06,23,02,21,14.50
2010,06,23,02,22,14.50
2010,06,23,02,23,14.50
2010,06,23,02,24,14.50
2010,06,23,02,25,14.50
2010,06,23,02,26,14.50
2010,06,23,02,27,14.60
2010,06,23,02,28,14.60
2010,06,23,02,29,14.60
2010,06,23,02,30,14.60
2010,06,23,02,31,14.60
2010,06,23,02,32,14.50
2010,06,23,02,33,14.50
2010,06,23,02,34,14.50
2010,06,23,02,35,14.50
2010,06,23,02,36,14.40
2010,06,23,02,37,14.40
2010,06,23,02,38,14.40
2010,06,23,02,39,14.40
2010,06,23,02,40,14.30
2010,06,23,02,41,14.30
2010,06,23,02,42,14.30
2010,06,23,02,43,14.30
2010,06,23,02,44,14.20
2010,06,23,02,45,14.20
2010,06,23,02,46,14.10
2010,06,23,02,47,14.10
2010,06,23,02,48,14.10
2010,06,23,02,49,14.00
2010,06,23,02,50,13.90
2010,06,23,02,51,13.90
2010,06,23,02,52,13.80
2010,06,23,02,53,13.80
2010,06,23,02,54,13.70
2010,06,23,02,55,13.70
2010,06,23,02,56,13.70
2010,06,23,02,57,13.60
2010,06,23,02,58,13.50
2010,06,23,02,59,13.40
2010,06,23,03,00,13.30
2010,06,23,03,01,13.20
2010,06,23,03,02,13.10
2010,06,23,03,03,13.00
2010,06,23,03,04,12.90
2010,06,23,03,05,12.90
2010,06,23,03,06,12.90
2010,06,23,03,07,12.80
2010,06,23,03,08,12.80
2010,06,23,03,09,12.80
2010,06,23,03,10,12.80
2010,06,23,03,11,12.80
2010,06,23,03,12,12.80
2010,06,23,03,13,12.80
2010,06,23,03,14,12.70
2010,06,23,03,15,12.70
2010,06,23,03,16,12.70
2010,06,23,03,17,12.70
2010,06,23,03,18,12.70
2010,06,23,03,19,12.70
2010,06,23,03,20,12.70
2010,06,23,03,21,12.70
2010,06,23,03,22,12.70
2010,06,23,03,23,12.70
2010,06,23,03,24,12.60
2010,06,23,03,25,12.60
2010,06,23,03,26,12.60
2010,06,23,03,27,12.60
2010,06,23,03,28,12.60
2010,06,23,03,29,12.60
2010,06,23,03,30,12.60
2010,06,23,03,31,12.60
2010,06,23,03,32,12.60
2010,06,23,03,33,12.60
2010,06,23,03,34,12.60
2010,06,23,03,35,12.60
2010,06,23,03,36,12.60
2010,06,23,03,37,12.60
2010,06,23,03,38,12.60
2010,06,23,03,39,12.60
2010,06,23,03,40,12.60
2010,06,23,03,41,12.60
2010,06,23,03,42,12.60
2010,06,23,03,43,12.60
2010,06,23,03,44,12.60
2010,06,23,03,45,12.60
2010,06,23,03,46,12.60
2010,06,23,03,47,12.60
2010,06,23,03,48,12.60
2010,06,23,03,49,12.60
2010,06,23,03,50,12.60
2010,06,23,03,51,12.60
2010,06,23,03,52,12.60
2010,06,23,03,53,12.60
2010,06,23,03,54,12.60
2010,06,23,03,55,12.60
2010,06,23,03,56,12.60
2010,06,23,03,57,12.60
2010,06,23,03,58,12.60
2010,06,23,03,59,12.60
2010,06,23,04,00,12.60
2010,06,23,04,01,12.60
2010,06,23,04,02,12.60
2010,06,23,04,03,12.70
2010,06,23,04,04,12.70
2010,06,23,04,05,12.70
2010,06,23,04,06,12.70
2010,06,23,04,07,12.70
2010,06,23,04,08,12.70
2010,06,23,04,09,12.70
2010,06,23,04,10,12.70
2010,06,23,04,11,12.80
2010,06,23,04,12,12.80
2010,06,23,04,13,12.80
2010,06,23,04,14,12.80
2010,06,23,04,15,12.80
2010,06,23,04,16,12.90
2010,06,23,04,17,12.90
2010,06,23,04,18,12.90
2010,06,23,04,19,12.90
2010,06,23,04,20,13.00
2010,06,23,04,21,13.00
2010,06,23,04,22,13.00
2010,06,23,04,23,13.00
2010,06,23,04,24,13.10
2010,06,23,04,25,13.00
2010,06,23,04,26,13.00
2010,06,23,04,27,13.00
2010,06,23,04,28,13.00
2010,06,23,04,29,13.00
2010,06,23,04,30,12.90
2010,06,23,04,31,12.90
2010,06,23,04,32,12.90
2010,06,23,04,33,12.90
2010,06,23,04,34,12.90
2010,06,23,04,35,12.90
2010,06,23,04,36,12.90
2010,06,23,04,37,13.00
2010,06,23,04,38,12.90
2010,06,23,04,39,13.00
2010,06,23,04,40,12.90
2010,06,23,04,41,12.90
2010,06,23,04,42,12.90
2010,06,23,04,43,12.90
2010,06,23,04,44,12.90
2010,06,23,04,45,12.90
2010,06,23,04,46,12.90
2010,06,23,04,47,12.90
2010,06,23,04,48,12.90
2010,06,23,04,49,12.90
2010,06,23,04,50,12.90
2010,06,23,04,51,12.90
2010,06,23,04,52,12.80
2010,06,23,04,53,12.80
2010,06,23,04,54,12.80
2010,06,23,04,55,12.80
2010,06,23,04,56,12.70
2010,06,23,04,57,12.70
2010,06,23,04,58,12.60
2010,06,23,04,59,12.60
2010,06,23,05,00,12.60
2010,06,23,05,01,12.60
2010,06,23,05,02,12.60
2010,06,23,05,03,12.60
2010,06,23,05,04,12.60
2010,06,23,05,05,12.60
2010,06,23,05,06,12.60
2010,06,23,05,07,12.60
2010,06,23,05,08,12.50
2010,06,23,05,09,12.50
2010,06,23,05,10,12.40
2010,06,23,05,11,12.40
2010,06,23,05,12,12.40
2010,06,23,05,13,12.40
2010,06,23,05,14,12.30
2010,06,23,05,15,12.30
2010,06,23,05,16,12.30
2010,06,23,05,17,12.20
2010,06,23,05,18,12.20
2010,06,23,05,19,12.20
2010,06,23,05,20,12.20
2010,06,23,05,21,12.20
2010,06,23,05,22,12.10
2010,06,23,05,23,12.10
2010,06,23,05,24,12.10
2010,06,23,05,25,12.10
2010,06,23,05,26,12.10
2010,06,23,05,27,12.10
2010,06,23,05,28,12.10
2010,06,23,05,29,12.10
2010,06,23,05,30,12.10
2010,06,23,05,31,12.10
2010,06,23,05,32,12.10
2010,06,23,05,33,12.10
2010,06,23,05,34,12.10
2010,06,23,05,35,12.10
2010,06,23,05,36,12.10
2010,06,23,05,37,12.10
2010,06,23,05,38,12.00
2010,06,23,05,39,12.00
2010,06,23,05,40,12.00
2010,06,23,05,41,12.00
2010,06,23,05,42,12.00
2010,06,23,05,43,12.00
2010,06,23,05,44,12.00
2010,06,23,05,45,12.00
2010,06,23,05,46,12.00
2010,06,23,05,47,12.00
2010,06,23,05,48,12.00
2010,06,23,05,49,12.00
2010,06,23,05,50,12.00
2010,06,23,05,51,12.10
2010,06,23,05,52,12.10
2010,06,23,05,53,12.10
2010,06,23,05,54,12.10
2010,06,23,05,55,12.10
2010,06,23,05,56,12.20
2010,06,23,05,57,12.20
2010,06,23,05,58,12.20
2010,06,23,05,59,12.30
2010,06,23,06,00,12.30
2010,06,23,06,01,12.30
2010,06,23,06,02,12.30
2010,06,23,06,03,12.40
2010,06,23,06,04,12.40
2010,06,23,06,05,12.50
2010,06,23,06,06,12.50
2010,06,23,06,07,12.60
2010,06,23,06,08,12.60
2010,06,23,06,09,12.70
2010,06,23,06,10,12.70
2010,06,23,06,11,12.80
2010,06,23,06,12,12.80
2010,06,23,06,13,12.90
2010,06,23,06,14,12.90
2010,06,23,06,15,13.00
2010,06,23,06,16,13.00
2010,06,23,06,17,13.00
2010,06,23,06,18,13.10
2010,06,23,06,19,13.10
2010,06,23,06,20,13.10
2010,06,23,06,21,13.20
2010,06,23,06,22,13.20
2010,06,23,06,23,13.20
2010,06,23,06,24,13.20
2010,06,23,06,25,13.30
2010,06,23,06,26,13.30
2010,06,23,06,27,13.30
2010,06,23,06,28,13.30
2010,06,23,06,29,13.40
2010,06,23,06,30,13.40
2010,06,23,06,31,13.40
2010,06,23,06,32,13.40
2010,06,23,06,33,13.50
2010,06,23,06,34,13.50
2010,06,23,06,35,13.60
2010,06,23,06,36,13.60
2010,06,23,06,37,13.60
2010,06,23,06,38,13.60
2010,06,23,06,39,13.60
2010,06,23,06,40,13.70
2010,06,23,06,41,13.70
2010,06,23,06,42,13.70
2010,06,23,06,43,13.70
2010,06,23,06,44,13.70
2010,06,23,06,45,13.80
2010,06,23,06,46,13.80
2010,06,23,06,47,13.80
2010,06,23,06,48,13.80
2010,06,23,06,49,13.90
2010,06,23,06,50,13.90
2010,06,23,06,51,13.90
2010,06,23,06,52,13.90
2010,06,23,06,53,14.00
2010,06,23,06,54,14.00
2010,06,23,06,55,14.00
2010,06,23,06,56,14.10
2010,06,23,06,57,14.10
2010,06,23,06,58,14.10
2010,06,23,06,59,14.10
2010,06,23,07,00,14.20
2010,06,23,07,01,14.20
2010,06,23,07,02,14.20
2010,06,23,07,03,14.20
2010,06,23,07,04,14.30
2010,06,23,07,05,14.30
2010,06,23,07,06,14.30
2010,06,23,07,07,14.30
2010,06,23,07,08,14.40
2010,06,23,07,09,14.40
2010,06,23,07,10,14.40
2010,06,23,07,11,14.50
2010,06,23,07,12,14.60
2010,06,23,07,13,14.60
2010,06,23,07,14,14.70
2010,06,23,07,15,14.70
2010,06,23,07,16,14.80
2010,06,23,07,17,14.80
2010,06,23,07,18,14.90
2010,06,23,07,19,15.00
2010,06,23,07,20,15.00
2010,06,23,07,21,15.00
2010,06,23,07,22,15.00
2010,06,23,07,23,15.10
2010,06,23,07,24,15.20
2010,06,23,07,25,15.30
2010,06,23,07,26,15.40
2010,06,23,07,27,15.40
2010,06,23,07,28,15.50
2010,06,23,07,29,15.60
2010,06,23,07,30,15.60
2010,06,23,07,31,15.70
2010,06,23,07,32,15.70
2010,06,23,07,33,15.80
2010,06,23,07,34,15.80
2010,06,23,07,35,15.80
2010,06,23,07,36,15.90
2010,06,23,07,37,15.90
2010,06,23,07,38,16.00
2010,06,23,07,39,16.00
2010,06,23,07,40,16.00
2010,06,23,07,41,16.10
2010,06,23,07,42,16.10
2010,06,23,07,43,16.20
2010,06,23,07,44,16.20
2010,06,23,07,45,16.20
2010,06,23,07,46,16.20
2010,06,23,07,47,16.30
2010,06,23,07,48,16.30
2010,06,23,07,49,16.30
2010,06,23,07,50,16.30
2010,06,23,07,51,16.30
2010,06,23,07,52,16.40
2010,06,23,07,53,16.40
2010,06,23,07,54,16.40
2010,06,23,07,55,16.40
2010,06,23,07,56,16.40
2010,06,23,07,57,16.40
2010,06,23,07,58,16.40
2010,06,23,07,59,16.40
2010,06,23,08,00,16.40
2010,06,23,08,01,16.40
2010,06,23,08,02,16.40
2010,06,23,08,03,16.50
2010,06,23,08,04,16.50
2010,06,23,08,05,16.50
2010,06,23,08,06,16.50
2010,06,23,08,07,16.60
2010,06,23,08,08,16.60
2010,06,23,08,09,16.60
2010,06,23,08,10,16.60
2010,06,23,08,11,16.70
2010,06,23,08,12,16.70
2010,06,23,08,13,16.80
2010,06,23,08,14,16.90
2010,06,23,08,15,17.00
2010,06,23,08,16,17.00
2010,06,23,08,17,17.10
2010,06,23,08,18,17.10
2010,06,23,08,19,17.10
2010,06,23,08,20,17.00
2010,06,23,08,21,16.80
2010,06,23,08,22,16.40
2010,06,23,08,23,16.10
2010,06,23,08,24,15.70
2010,06,23,08,25,15.40
2010,06,23,08,26,15.20
2010,06,23,08,27,15.20
2010,06,23,08,28,15.00
2010,06,23,08,29,15.00
2010,06,23,08,30,15.00
2010,06,23,08,31,15.00
2010,06,23,08,32,14.90
2010,06,23,08,33,14.90
2010,06,23,08,34,14.90
2010,06,23,08,35,14.80
2010,06,23,08,36,14.70
2010,06,23,08,37,14.70
2010,06,23,08,38,14.60
2010,06,23,08,39,14.60
2010,06,23,08,40,14.60
2010,06,23,08,41,14.60
2010,06,23,08,42,14.60
2010,06,23,08,43,14.60
2010,06,23,08,44,14.70
2010,06,23,08,45,14.80
2010,06,23,08,46,14.80
2010,06,23,08,47,14.90
2010,06,23,08,48,15.00
2010,06,23,08,49,15.00
2010,06,23,08,50,15.00
2010,06,23,08,51,15.00
2010,06,23,08,52,15.10
2010,06,23,08,53,15.20
2010,06,23,08,54,15.30
2010,06,23,08,55,15.30
2010,06,23,08,56,15.30
2010,06,23,08,57,15.40
2010,06,23,08,58,15.40
2010,06,23,08,59,15.50
2010,06,23,09,00,15.50
2010,06,23,09,01,15.60
2010,06,23,09,02,15.70
2010,06,23,09,03,15.80
2010,06,23,09,04,15.80
2010,06,23,09,05,15.80
2010,06,23,09,06,15.90
2010,06,23,09,07,15.90
2010,06,23,09,08,16.00
2010,06,23,09,09,16.00
2010,06,23,09,10,16.10
2010,06,23,09,11,16.10
2010,06,23,09,12,16.10
2010,06,23,09,13,16.20
2010,06,23,09,14,16.20
2010,06,23,09,15,16.20
2010,06,23,09,16,16.20
2010,06,23,09,17,16.30
2010,06,23,09,18,16.30
2010,06,23,09,19,16.40
2010,06,23,09,20,16.40
2010,06,23,09,21,16.50
2010,06,23,09,22,16.60
2010,06,23,09,23,16.60
2010,06,23,09,24,16.70
2010,06,23,09,25,16.70
2010,06,23,09,26,16.80
2010,06,23,09,27,16.80
2010,06,23,09,28,16.90
2010,06,23,09,29,17.00
2010,06,23,09,30,17.10
2010,06,23,09,31,17.10
2010,06,23,09,32,17.20
2010,06,23,09,33,17.30
2010,06,23,09,34,17.30
2010,06,23,09,35,17.40
2010,06,23,09,36,17.40
2010,06,23,09,37,17.50
2010,06,23,09,38,17.60
2010,06,23,09,39,17.70
2010,06,23,09,40,17.80
2010,06,23,09,41,17.90
2010,06,23,09,42,18.00
2010,06,23,09,43,18.10
2010,06,23,09,44,18.30
2010,06,23,09,45,18.40
2010,06,23,09,46,18.50
2010,06,23,09,47,18.60
2010,06,23,09,48,18.70
2010,06,23,09,49,18.70
2010,06,23,09,50,18.80
2010,06,23,09,51,18.90
2010,06,23,09,52,19.00
2010,06,23,09,53,19.10
2010,06,23,09,54,19.20
2010,06,23,09,55,19.20
2010,06,23,09,56,19.30
2010,06,23,09,57,19.30
2010,06,23,09,58,19.30
2010,06,23,09,59,19.30
2010,06,23,10,00,19.30
2010,06,23,10,01,19.40
2010,06,23,10,02,19.40
2010,06,23,10,03,19.50
2010,06,23,10,04,19.60
2010,06,23,10,05,19.70
2010,06,23,10,06,19.70
2010,06,23,10,07,19.70
2010,06,23,10,08,19.70
2010,06,23,10,09,19.80
2010,06,23,10,10,19.80
2010,06,23,10,11,19.80
2010,06,23,10,12,19.80
2010,06,23,10,13,19.80
2010,06,23,10,14,19.90
2010,06,23,10,15,20.00
2010,06,23,10,16,20.00
2010,06,23,10,17,20.10
2010,06,23,10,18,20.10
2010,06,23,10,19,20.20
2010,06,23,10,20,20.10
2010,06,23,10,21,20.10
2010,06,23,10,22,19.90
2010,06,23,10,23,19.60
2010,06,23,10,24,19.30
2010,06,23,10,25,19.10
2010,06,23,10,26,18.80
2010,06,23,10,27,18.60
2010,06,23,10,28,18.50
2010,06,23,10,29,18.30
2010,06,23,10,30,18.20
2010,06,23,10,31,18.20
2010,06,23,10,32,18.10
2010,06,23,10,33,18.00
2010,06,23,10,34,18.10
2010,06,23,10,35,18.10
2010,06,23,10,36,18.10
2010,06,23,10,37,18.20
2010,06,23,10,38,18.30
2010,06,23,10,39,18.20
2010,06,23,10,40,18.20
2010,06,23,10,41,18.20
2010,06,23,10,42,18.20
2010,06,23,10,43,18.20
2010,06,23,10,44,18.30
2010,06,23,10,45,18.30
2010,06,23,10,46,18.20
2010,06,23,10,47,18.20
2010,06,23,10,48,18.20
2010,06,23,10,49,18.20
2010,06,23,10,50,18.30
2010,06,23,10,51,18.50
2010,06,23,10,52,18.60
2010,06,23,10,53,18.70
2010,06,23,10,54,18.80
2010,06,23,10,55,18.80
2010,06,23,10,56,18.80
2010,06,23,10,57,18.90
2010,06,23,10,58,18.90
2010,06,23,10,59,19.00
2010,06,23,11,00,19.00
2010,06,23,11,01,19.10
2010,06,23,11,02,19.10
2010,06,23,11,03,19.30
2010,06,23,11,04,19.40
2010,06,23,11,05,19.40
2010,06,23,11,06,19.30
2010,06,23,11,07,19.40
2010,06,23,11,08,19.40
2010,06,23,11,09,19.50
2010,06,23,11,10,19.60
2010,06,23,11,11,19.70
2010,06,23,11,12,19.70
2010,06,23,11,13,19.80
2010,06,23,11,14,19.80
2010,06,23,11,15,19.90
2010,06,23,11,16,20.00
2010,06,23,11,17,20.00
2010,06,23,11,18,20.00
2010,06,23,11,19,20.10
2010,06,23,11,20,20.00
2010,06,23,11,21,20.10
2010,06,23,11,22,20.20
2010,06,23,11,23,20.10
2010,06,23,11,24,20.00
2010,06,23,11,25,19.80
2010,06,23,11,26,19.70
2010,06,23,11,27,19.60
2010,06,23,11,28,19.50
2010,06,23,11,29,19.50
2010,06,23,11,30,19.60
2010,06,23,11,31,19.70
2010,06,23,11,32,19.80
2010,06,23,11,33,20.00
2010,06,23,11,34,20.20
2010,06,23,11,35,20.10
2010,06,23,11,36,20.10
2010,06,23,11,37,20.00
2010,06,23,11,38,20.00
2010,06,23,11,39,20.20
2010,06,23,11,40,20.30
2010,06,23,11,41,20.30
2010,06,23,11,42,20.40
2010,06,23,11,43,20.40
2010,06,23,11,44,20.40
2010,06,23,11,45,20.40
2010,06,23,11,46,20.50
2010,06,23,11,47,20.60
2010,06,23,11,48,20.60
2010,06,23,11,49,20.60
2010,06,23,11,50,20.60
2010,06,23,11,51,20.50
2010,06,23,11,52,20.50
2010,06,23,11,53,20.40
2010,06,23,11,54,20.40
2010,06,23,11,55,20.40
2010,06,23,11,56,20.30
2010,06,23,11,57,20.20
2010,06,23,11,58,20.20
2010,06,23,11,59,20.20
2010,06,23,12,00,20.20
2010,06,23,12,01,20.20
2010,06,23,12,02,20.30
2010,06,23,12,03,20.40
2010,06,23,12,04,20.50
2010,06,23,12,05,20.40
2010,06,23,12,06,20.30
2010,06,23,12,07,20.30
2010,06,23,12,08,20.20
2010,06,23,12,09,20.20
2010,06,23,12,10,20.20
2010,06,23,12,11,20.00
2010,06,23,12,12,19.90
2010,06,23,12,13,19.90
2010,06,23,12,14,19.90
2010,06,23,12,15,20.00
2010,06,23,12,16,20.10
2010,06,23,12,17,20.20
2010,06,23,12,18,20.30
2010,06,23,12,19,20.20
2010,06,23,12,20,20.00
2010,06,23,12,21,20.00
2010,06,23,12,22,19.90
2010,06,23,12,23,19.90
2010,06,23,12,24,19.80
2010,06,23,12,25,19.70
2010,06,23,12,26,19.60
2010,06,23,12,27,19.50
2010,06,23,12,28,19.40
2010,06,23,12,29,19.40
2010,06,23,12,30,19.40
2010,06,23,12,31,19.40
2010,06,23,12,32,19.50
2010,06,23,12,33,19.70
2010,06,23,12,34,19.80
2010,06,23,12,35,19.70
2010,06,23,12,36,19.50
2010,06,23,12,37,19.40
2010,06,23,12,38,19.30
2010,06,23,12,39,19.30
2010,06,23,12,40,19.30
2010,06,23,12,41,19.30
2010,06,23,12,42,19.30
2010,06,23,12,43,19.30
2010,06,23,12,44,19.10
2010,06,23,12,45,19.10
2010,06,23,12,46,19.20
2010,06,23,12,47,19.00
2010,06,23,12,48,19.00
2010,06,23,12,49,19.00
2010,06,23,12,50,18.90
2010,06,23,12,51,18.90
2010,06,23,12,52,19.00
2010,06,23,12,53,18.90
2010,06,23,12,54,18.90
2010,06,23,12,55,18.90
2010,06,23,12,56,18.90
2010,06,23,12,57,18.90
2010,06,23,12,58,18.90
2010,06,23,12,59,18.90
2010,06,23,13,00,18.90
2010,06,23,13,01,18.90
2010,06,23,13,02,19.00
2010,06,23,13,03,19.00
2010,06,23,13,04,18.90
2010,06,23,13,05,19.00
2010,06,23,13,06,19.10
2010,06,23,13,07,19.10
2010,06,23,13,08,19.20
2010,06,23,13,09,19.20
2010,06,23,13,10,19.10
2010,06,23,13,11,19.10
2010,06,23,13,12,19.10
2010,06,23,13,13,19.10
2010,06,23,13,14,19.10
2010,06,23,13,15,19.20
2010,06,23,13,16,19.30
2010,06,23,13,17,19.30
2010,06,23,13,18,19.40
2010,06,23,13,19,19.50
2010,06,23,13,20,19.70
2010,06,23,13,21,19.80
2010,06,23,13,22,20.00
2010,06,23,13,23,20.30
2010,06,23,13,24,20.40
2010,06,23,13,25,20.50
2010,06,23,13,26,20.50
2010,06,23,13,27,20.50
2010,06,23,13,28,20.60
2010,06,23,13,29,20.70
2010,06,23,13,30,20.70
2010,06,23,13,31,20.70
2010,06,23,13,32,20.50
2010,06,23,13,33,20.40
2010,06,23,13,34,20.40
2010,06,23,13,35,20.30
2010,06,23,13,36,20.30
2010,06,23,13,37,20.30
2010,06,23,13,38,20.30
2010,06,23,13,39,20.30
2010,06,23,13,40,20.20
2010,06,23,13,41,20.00
2010,06,23,13,42,20.10
2010,06,23,13,43,20.30
2010,06,23,13,44,20.50
2010,06,23,13,45,20.60
2010,06,23,13,46,20.60
2010,06,23,13,47,20.60
2010,06,23,13,48,20.60
2010,06,23,13,49,20.50
2010,06,23,13,50,20.40
2010,06,23,13,51,20.50
2010,06,23,13,52,20.50
2010,06,23,13,53,20.50
2010,06,23,13,54,20.50
2010,06,23,13,55,20.60
2010,06,23,13,56,20.70
2010,06,23,13,57,20.80
2010,06,23,13,58,20.80
2010,06,23,13,59,20.80
2010,06,23,14,00,20.70
2010,06,23,14,01,20.60
2010,06,23,14,02,20.60
2010,06,23,14,03,20.70
2010,06,23,14,04,20.80
2010,06,23,14,05,20.80
2010,06,23,14,06,20.70
2010,06,23,14,07,20.60
2010,06,23,14,08,20.60
2010,06,23,14,09,20.60
2010,06,23,14,10,20.60
2010,06,23,14,11,20.80
2010,06,23,14,12,20.80
2010,06,23,14,13,20.80
2010,06,23,14,14,20.80
2010,06,23,14,15,20.80
2010,06,23,14,16,20.70
2010,06,23,14,17,20.70
2010,06,23,14,18,20.70
2010,06,23,14,19,20.80
2010,06,23,14,20,20.90
2010,06,23,14,21,21.00
2010,06,23,14,22,21.00
2010,06,23,14,23,20.90
2010,06,23,14,24,20.80
2010,06,23,14,25,20.80
2010,06,23,14,26,20.90
2010,06,23,14,27,21.00
2010,06,23,14,28,21.00
2010,06,23,14,29,21.00
2010,06,23,14,30,21.00
2010,06,23,14,31,20.80
2010,06,23,14,32,20.80
2010,06,23,14,33,20.90
2010,06,23,14,34,21.00
2010,06,23,14,35,21.00
2010,06,23,14,36,21.20
2010,06,23,14,37,21.30
2010,06,23,14,38,21.30
2010,06,23,14,39,21.30
2010,06,23,14,40,21.20
2010,06,23,14,41,21.30
2010,06,23,14,42,21.20
2010,06,23,14,43,21.10
2010,06,23,14,44,21.00
2010,06,23,14,45,20.90
2010,06,23,14,46,20.90
2010,06,23,14,47,20.90
2010,06,23,14,48,20.90
2010,06,23,14,49,20.90
2010,06,23,14,50,21.10
2010,06,23,14,51,21.20
2010,06,23,14,52,21.10
2010,06,23,14,53,21.00
2010,06,23,14,54,20.80
2010,06,23,14,55,20.60
2010,06,23,14,56,20.60
2010,06,23,14,57,20.50
2010,06,23,14,58,20.40
2010,06,23,14,59,20.40
2010,06,23,15,00,20.50
2010,06,23,15,01,20.50
2010,06,23,15,02,20.40
2010,06,23,15,03,20.30
2010,06,23,15,04,20.20
2010,06,23,15,05,20.20
2010,06,23,15,06,20.10
2010,06,23,15,07,20.00
2010,06,23,15,08,19.90
2010,06,23,15,09,19.80
2010,06,23,15,10,19.70
2010,06,23,15,11,19.60
2010,06,23,15,12,19.60
2010,06,23,15,13,19.70
2010,06,23,15,14,19.80
2010,06,23,15,15,19.90
2010,06,23,15,16,20.00
2010,06,23,15,17,20.00
2010,06,23,15,18,19.90
2010,06,23,15,19,19.80
2010,06,23,15,20,19.80
2010,06,23,15,21,19.90
2010,06,23,15,22,20.00
2010,06,23,15,23,20.00
2010,06,23,15,24,20.00
2010,06,23,15,25,19.90
2010,06,23,15,26,19.90
2010,06,23,15,27,20.00
2010,06,23,15,28,20.10
2010,06,23,15,29,20.10
2010,06,23,15,30,20.20
2010,06,23,15,31,20.00
2010,06,23,15,32,20.00
2010,06,23,15,33,19.90
2010,06,23,15,34,19.90
2010,06,23,15,35,19.80
2010,06,23,15,36,19.70
2010,06,23,15,37,19.70
2010,06,23,15,38,19.60
2010,06,23,15,39,19.70
2010,06,23,15,40,19.80
2010,06,23,15,41,19.60
2010,06,23,15,42,19.60
2010,06,23,15,43,19.60
2010,06,23,15,44,19.70
2010,06,23,15,45,19.60
2010,06,23,15,46,19.50
2010,06,23,15,47,19.40
2010,06,23,15,48,19.30
2010,06,23,15,49,19.10
2010,06,23,15,50,18.90
2010,06,23,15,51,18.90
2010,06,23,15,52,18.90
2010,06,23,15,53,19.00
2010,06,23,15,54,19.10
2010,06,23,15,55,19.10
2010,06,23,15,56,19.00
2010,06,23,15,57,19.00
2010,06,23,15,58,19.00
2010,06,23,15,59,19.10
2010,06,23,16,00,19.20
2010,06,23,16,01,19.30
2010,06,23,16,02,19.40
2010,06,23,16,03,19.40
2010,06,23,16,04,19.40
2010,06,23,16,05,19.30
2010,06,23,16,06,19.30
2010,06,23,16,07,19.30
2010,06,23,16,08,19.30
2010,06,23,16,09,19.30
2010,06,23,16,10,19.20
2010,06,23,16,11,19.20
2010,06,23,16,12,19.10
2010,06,23,16,13,19.20
2010,06,23,16,14,19.40
2010,06,23,16,15,19.40
2010,06,23,16,16,19.40
2010,06,23,16,17,19.40
2010,06,23,16,18,19.30
2010,06,23,16,19,19.30
2010,06,23,16,20,19.30
2010,06,23,16,21,19.20
2010,06,23,16,22,19.10
2010,06,23,16,23,19.10
2010,06,23,16,24,19.10
2010,06,23,16,25,19.20
2010,06,23,16,26,19.40
2010,06,23,16,27,19.40
2010,06,23,16,28,19.40
2010,06,23,16,29,19.10
2010,06,23,16,30,18.80
2010,06,23,16,31,18.70
2010,06,23,16,32,18.70
2010,06,23,16,33,18.70
2010,06,23,16,34,18.70
2010,06,23,16,35,18.50
2010,06,23,16,36,18.50
2010,06,23,16,37,18.40
2010,06,23,16,38,18.40
2010,06,23,16,39,18.40
2010,06,23,16,40,18.50
2010,06,23,16,41,18.50
2010,06,23,16,42,18.60
2010,06,23,16,43,18.60
2010,06,23,16,44,18.50
2010,06,23,16,45,18.50
2010,06,23,16,46,18.50
2010,06,23,16,47,18.30
2010,06,23,16,48,18.10
2010,06,23,16,49,18.00
2010,06,23,16,50,17.90
2010,06,23,16,51,17.90
2010,06,23,16,52,17.90
2010,06,23,16,53,17.90
2010,06,23,16,54,17.90
2010,06,23,16,55,18.00
2010,06,23,16,56,18.20
2010,06,23,16,57,18.20
2010,06,23,16,58,18.20
2010,06,23,16,59,18.10
2010,06,23,17,00,18.00
2010,06,23,17,01,17.80
2010,06,23,17,02,17.70
2010,06,23,17,03,17.70
2010,06,23,17,04,17.70
2010,06,23,17,05,17.60
2010,06,23,17,06,17.40
2010,06,23,17,07,17.40
2010,06,23,17,08,17.30
2010,06,23,17,09,17.40
2010,06,23,17,10,17.50
2010,06,23,17,11,17.60
2010,06,23,17,12,17.60
2010,06,23,17,13,17.60
2010,06,23,17,14,17.50
2010,06,23,17,15,17.40
2010,06,23,17,16,17.30
2010,06,23,17,17,17.10
2010,06,23,17,18,17.10
2010,06,23,17,19,17.10